• In Hungary
  • List of Countries
  • For 7 days
  • Water Temperature
  • Satellite Maps
  • Weather Map
  • News
  • Weather Widgets
  • user-avatar
    Login

    Hourly Weather Temse

    Today, 18 December, Monday

    Time Temperature Precipitation Wind Pressure Humidity
    00:00 +3°C° 0 mm 7 mps 762 mmHg 91%
    01:00 +4°C° 0.3 mm 6 mps 762 mmHg 91%
    02:00 +4°C° 0.3 mm 6 mps 762 mmHg 91%
    03:00 +5°C° 0.3 mm 5 mps 762 mmHg 91%
    04:00 +5°C° 0.1 mm 5 mps 762 mmHg 89%
    05:00 +5°C° 0.1 mm 5 mps 763 mmHg 88%
    06:00 +5°C° 0 mm 5 mps 763 mmHg 87%
    07:00 +5°C° 0 mm 5 mps 764 mmHg 86%
    08:00 +5°C° 0 mm 5 mps 765 mmHg 85%
    09:00 +5°C° 0 mm 5 mps 766 mmHg 84%
    10:00 +6°C° 0 mm 5 mps 766 mmHg 81%
    11:00 +6°C° 0 mm 5 mps 767 mmHg 78%
    12:00 +7°C° 0 mm 5 mps 767 mmHg 75%
    13:00 +7°C° 0 mm 5 mps 768 mmHg 77%
    14:00 +6°C° 0 mm 4 mps 768 mmHg 80%
    15:00 +6°C° 0 mm 4 mps 768 mmHg 82%
    16:00 +5°C° 0 mm 3 mps 769 mmHg 85%
    17:00 +5°C° 0 mm 3 mps 770 mmHg 87%
    18:00 +4°C° 0 mm 3 mps 770 mmHg 90%
    19:00 +4°C° 0 mm 3 mps 771 mmHg 91%
    20:00 +5°C° 0 mm 2 mps 771 mmHg 91%
    21:00 +5°C° 0 mm 2 mps 771 mmHg 92%
    22:00 +4°C° 0 mm 2 mps 772 mmHg 92%
    23:00 +4°C° 0 mm 2 mps 772 mmHg 92%

    Tomorrow, 19 December, Tuesday

    Time Temperature Precipitation Wind Pressure Humidity
    00:00 +4°C° 0 mm 2 mps 772 mmHg 92%
    01:00 +5°C° 0 mm 1 mps 773 mmHg 92%
    02:00 +5°C° 0 mm 1 mps 773 mmHg 92%
    03:00 +4°C° 0 mm 1 mps 773 mmHg 92%
    04:00 +4°C° 0 mm 1 mps 773 mmHg 92%
    05:00 +4°C° 0 mm 1 mps 774 mmHg 93%
    06:00 +3°C° 0 mm 2 mps 774 mmHg 93%
    07:00 +3°C° 0 mm 2 mps 774 mmHg 93%
    08:00 +4°C° 0 mm 2 mps 775 mmHg 93%
    09:00 +4°C° 0 mm 2 mps 775 mmHg 93%
    10:00 +5°C° 0 mm 2 mps 775 mmHg 89%
    11:00 +5°C° 0 mm 3 mps 775 mmHg 85%
    12:00 +7°C° 0 mm 3 mps 774 mmHg 81%
    13:00 +5°C° 0 mm 3 mps 774 mmHg 82%
    14:00 +5°C° 0 mm 3 mps 774 mmHg 83%
    15:00 +4°C° 0 mm 3 mps 774 mmHg 85%
    16:00 +4°C° 0 mm 3 mps 774 mmHg 86%
    17:00 +4°C° 0 mm 3 mps 774 mmHg 87%
    18:00 +3°C° 0 mm 3 mps 774 mmHg 89%
    19:00 +3°C° 0 mm 3 mps 774 mmHg 89%
    20:00 +3°C° 0 mm 3 mps 774 mmHg 90%
    21:00 +4°C° 0 mm 3 mps 774 mmHg 90%
    22:00 +4°C° 0 mm 3 mps 774 mmHg 91%
    23:00 +4°C° 0 mm 3 mps 774 mmHg 92%

    Day after tomorrow, 20 December, Wednesday

    Time Temperature Precipitation Wind Pressure Humidity
    00:00 +5°C° 0 mm 2 mps 774 mmHg 93%
    01:00 +5°C° 0 mm 2 mps 774 mmHg 94%
    02:00 +5°C° 0 mm 2 mps 774 mmHg 94%
    03:00 +5°C° 0 mm 2 mps 773 mmHg 95%
    04:00 +5°C° 0 mm 2 mps 773 mmHg 95%
    05:00 +5°C° 0 mm 2 mps 773 mmHg 96%
    06:00 +5°C° 0 mm 2 mps 773 mmHg 96%
    07:00 +5°C° 0 mm 2 mps 773 mmHg 97%
    08:00 +6°C° 0 mm 2 mps 773 mmHg 97%
    09:00 +6°C° 0 mm 2 mps 774 mmHg 97%
    10:00 +7°C° 0 mm 2 mps 773 mmHg 96%
    11:00 +8°C° 0 mm 2 mps 773 mmHg 95%
    12:00 +8°C° 0 mm 2 mps 773 mmHg 94%
    13:00 +8°C° 0 mm 2 mps 773 mmHg 95%
    14:00 +8°C° 0 mm 2 mps 773 mmHg 96%
    15:00 +8°C° 0 mm 2 mps 773 mmHg 96%
    16:00 +8°C° 0 mm 2 mps 773 mmHg 97%
    17:00 +8°C° 0 mm 2 mps 773 mmHg 97%
    18:00 +8°C° 0 mm 2 mps 774 mmHg 97%
    19:00 +8°C° 0 mm 3 mps 774 mmHg 97%
    20:00 +8°C° 0 mm 3 mps 774 mmHg 97%
    21:00 +9°C° 0 mm 3 mps 774 mmHg 97%
    22:00 +9°C° 0 mm 3 mps 774 mmHg 97%
    23:00 +9°C° 0 mm 3 mps 774 mmHg 97%

    21 December, Thursday

    Time Temperature Precipitation Wind Pressure Humidity
    00:00 +9°C° 0 mm 3 mps 774 mmHg 97%
    01:00 +9°C° 0 mm 3 mps 774 mmHg 97%
    02:00 +9°C° 0 mm 3 mps 773 mmHg 97%
    03:00 +9°C° 0 mm 3 mps 773 mmHg 97%
    04:00 +9°C° 0.1 mm 3 mps 773 mmHg 97%
    05:00 +9°C° 0.1 mm 3 mps 773 mmHg 97%
    06:00 +9°C° 0.1 mm 3 mps 773 mmHg 97%
    07:00 +9°C° 0.4 mm 3 mps 773 mmHg 97%
    08:00 +8°C° 0.4 mm 4 mps 773 mmHg 96%
    09:00 +8°C° 0.4 mm 4 mps 773 mmHg 96%
    10:00 +10°C° 0.2 mm 4 mps 773 mmHg 96%
    11:00 +10°C° 0.2 mm 4 mps 772 mmHg 95%
    12:00 +10°C° 0.2 mm 4 mps 772 mmHg 95%
    13:00 +10°C° 0.1 mm 4 mps 772 mmHg 95%
    14:00 +10°C° 0.1 mm 4 mps 772 mmHg 95%
    15:00 +10°C° 0.1 mm 4 mps 772 mmHg 95%
    16:00 +10°C° 0.1 mm 4 mps 772 mmHg 95%
    17:00 +10°C° 0.1 mm 4 mps 772 mmHg 96%
    18:00 +10°C° 0.1 mm 3 mps 773 mmHg 96%
    19:00 +9°C° 0.3 mm 3 mps 773 mmHg 96%
    20:00 +9°C° 0.3 mm 3 mps 774 mmHg 96%
    21:00 +9°C° 0.3 mm 2 mps 774 mmHg 96%
    22:00 +8°C° 0.1 mm 2 mps 774 mmHg 95%
    23:00 +8°C° 0.1 mm 2 mps 774 mmHg 95%

    22 December, Friday

    Time Temperature Precipitation Wind Pressure Humidity
    00:00 +8°C° 0.1 mm 2 mps 774 mmHg 94%
    01:00 +7°C° 0 mm 2 mps 774 mmHg 94%
    02:00 +7°C° 0 mm 2 mps 774 mmHg 94%
    03:00 +6°C° 0 mm 2 mps 774 mmHg 93%
    04:00 +6°C° 0 mm 2 mps 775 mmHg 93%
    05:00 +6°C° 0 mm 2 mps 775 mmHg 93%
    06:00 +5°C° 0 mm 2 mps 775 mmHg 93%
    07:00 +5°C° 0 mm 2 mps 775 mmHg 94%
    08:00 +5°C° 0 mm 2 mps 776 mmHg 94%
    09:00 +5°C° 0 mm 2 mps 776 mmHg 94%
    10:00 +6°C° 0 mm 2 mps 776 mmHg 91%
    11:00 +7°C° 0 mm 2 mps 776 mmHg 88%
    12:00 +8°C° 0 mm 2 mps 776 mmHg 84%
    13:00 +7°C° 0 mm 2 mps 776 mmHg 85%
    14:00 +7°C° 0 mm 2 mps 776 mmHg 85%
    15:00 +7°C° 0 mm 2 mps 776 mmHg 86%
    16:00 +6°C° 0 mm 2 mps 776 mmHg 87%
    17:00 +5°C° 0 mm 2 mps 776 mmHg 89%
    18:00 +5°C° 0 mm 2 mps 776 mmHg 90%
    19:00 +5°C° 0 mm 2 mps 776 mmHg 91%
    20:00 +4°C° 0 mm 2 mps 776 mmHg 91%
    21:00 +4°C° 0 mm 2 mps 776 mmHg 92%
    22:00 +4°C° 0 mm 2 mps 776 mmHg 93%
    23:00 +4°C° 0 mm 2 mps 776 mmHg 93%

    23 December, Saturday

    Time Temperature Precipitation Wind Pressure Humidity
    00:00 +4°C° 0 mm 2 mps 776 mmHg 94%
    01:00 +4°C° 0 mm 2 mps 775 mmHg 94%
    02:00 +4°C° 0 mm 2 mps 775 mmHg 94%
    03:00 +4°C° 0 mm 2 mps 775 mmHg 95%
    04:00 +4°C° 0 mm 2 mps 775 mmHg 95%
    05:00 +4°C° 0 mm 2 mps 775 mmHg 95%
    06:00 +3°C° 0 mm 2 mps 774 mmHg 95%
    07:00 +3°C° 0 mm 2 mps 774 mmHg 95%
    08:00 +4°C° 0 mm 2 mps 774 mmHg 95%
    09:00 +4°C° 0 mm 2 mps 775 mmHg 95%
    10:00 +4°C° 0 mm 3 mps 774 mmHg 91%
    11:00 +4°C° 0 mm 3 mps 774 mmHg 88%
    12:00 +5°C° 0 mm 3 mps 774 mmHg 85%
    13:00 +5°C° 0 mm 3 mps 773 mmHg 87%
    14:00 +5°C° 0 mm 3 mps 773 mmHg 89%
    15:00 +5°C° 0 mm 3 mps 773 mmHg 91%
    16:00 +5°C° 0 mm 4 mps 772 mmHg 92%
    17:00 +5°C° 0 mm 4 mps 772 mmHg 93%
    18:00 +5°C° 0 mm 5 mps 772 mmHg 94%
    19:00 +6°C° 0 mm 5 mps 771 mmHg 93%
    20:00 +6°C° 0 mm 5 mps 771 mmHg 93%
    21:00 +7°C° 0 mm 6 mps 771 mmHg 92%
    22:00 +7°C° 0.1 mm 6 mps 770 mmHg 92%
    23:00 +7°C° 0.1 mm 6 mps 770 mmHg 92%
    Show more